Regional Weather Roundup
Issued by NWS

Home | Current Version | Previous Version | Text Only | Print | Product List | Glossary On
Versions: 1 2 3 4 5 6 7 8 9 10 11 12 13 14 15 16 17 18 19 20 21 22 23 24 25 26 27 28 29 30 31 32 33 34 35 36 37 38 39 40 41 42 43 44 45 46 47 48 49 50
000
ASUS45 KCYS 240010
RWRWY

WYOMING REGIONAL WEATHER ROUNDUP
NATIONAL WEATHER SERVICE CHEYENNE WY
600 PM MDT SUN APR 23 2017

NOTE:  "FAIR" INDICATES FEW OR NO CLOUDS BELOW 12,000 FEET
WITH NO SIGNIFICANT WEATHER AND/OR OBSTRUCTIONS TO VISIBILITY.

WYZ001-240100-
YELLOWSTONE NATIONAL PARK

CITY           SKY/WX    TMP DP  RH WIND       PRES   REMARKS
LK YELLOWSTONE   N/A     33  33 100 W3        29.85S
6HR MIN TEMP:  32; 6HR MAX TEMP:  47; 6HR PCP:  0.06;

W YELLOWSTONE  NOT AVBL

$$
WYZ002>013-054>058-071-098>099-240100-
NORTHERN WYOMING

CITY           SKY/WX    TMP DP  RH WIND       PRES   REMARKS
JACKSON        PTSUNNY   48  30  49 SW16      29.83S
CODY           FAIR      58  31  35 W20G29    29.68R
GREYBULL       PTSUNNY   68  31  25 S10       29.58S
6HR MIN TEMP:  62; 6HR MAX TEMP:  71; 6HR PCP: TRACE;

WORLAND        FAIR      65  38  36 NW12G21   29.60R
6HR MIN TEMP:  64; 6HR MAX TEMP:  69;

SHERIDAN       CLOUDY    65  42  43 VRB3      29.58F
6HR MIN TEMP:  65; 6HR MAX TEMP:  70;

BUFFALO        FAIR      67  37  33 NW3       29.62F
6HR MIN TEMP:  63; 6HR MAX TEMP:  71;

GILLETTE       FAIR      70  36  28 CALM      29.59F
6HR MIN TEMP:  62; 6HR MAX TEMP:  71;

HULETT         FAIR      59  43  55 E18G24    29.66F
NEWCASTLE      FAIR      68  27  21 SE10G16   29.63F

$$
WYZ014>020-022>026-101>103-240100-
CENTRAL WYOMING

CITY           SKY/WX    TMP DP  RH WIND       PRES   REMARKS
BIG PINEY      FAIR      49  30  48 N20       29.85R
6HR MIN TEMP:  49; 6HR MAX TEMP:  61;

PINEDALE       CLOUDY    46  30  53 NW16      29.85R
DUBOIS         CLOUDY    43  30  61 NW16G23   29.81R
LANDER         PTSUNNY   53  37  54 S20G29    29.68F
6HR MIN TEMP:  53; 6HR MAX TEMP:  69;

RIVERTON       CLOUDY    55  38  52 W15       29.71R
6HR MIN TEMP:  55; 6HR MAX TEMP:  68;

CASPER         PTSUNNY   64  35  34 SW10      29.64F
6HR MIN TEMP:  64; 6HR MAX TEMP:  72;

DOUGLAS        FAIR      72  26  18 W12       29.65F
6HR MIN TEMP:  64; 6HR MAX TEMP:  74;


$$
WYZ021-027>030-104>119-240100-
SOUTHERN WYOMING

CITY           SKY/WX    TMP DP  RH WIND       PRES   REMARKS
EVANSTON       FAIR      55  31  39 NW21G28   29.84R
6HR MIN TEMP:  54; 6HR MAX TEMP:  64;

KEMMERER         N/A     48  30  49 NW22G29   29.84R
FORT BRIDGER   CLOUDY    54  30  40 NW18      29.85R
ROCK SPRINGS   FAIR      58  31  35 W13       29.79R
6HR MIN TEMP:  57; 6HR MAX TEMP:  68; 6HR PCP: TRACE;

DIXON            N/A     67  22  18 W18       29.80F
RAWLINS        FAIR      65  14  14 SW35G45   29.76S
6HR MIN TEMP:  60; 6HR MAX TEMP:  67;

SARATOGA       FAIR      63  19  19 MISG      29.80S
LARAMIE        FAIR      61  23  23 SW14      29.79F
6HR MIN TEMP:  61; 6HR MAX TEMP:  67;

CHEYENNE       FAIR      63  27  25 S12       29.77S
6HR MIN TEMP:  60; 6HR MAX TEMP:  66;

TORRINGTON     FAIR      72  27  18 S21       29.64F
6HR MIN TEMP:  69; 6HR MAX TEMP:  76;

PINE BLUFFS    FAIR      64  30  27 S15       29.73F

$$



USA.gov is the U.S. government's official web portal to all federal, state and local government web resources and services.